www.pogodaiklimat.ru

Погода и климат >> Архив погоды >> Россия >> Архангельская область >> Моржовец Остров


ПОГОДА на Моржовец Острове

  • Прогноз погоды на Моржовец Острове
  • Монитор погоды на Моржовец Острове

АРХИВ ПОГОДЫ на Моржовец Острове

Время (UTC), дата Ветер
(напр.,м/с)
 
Видим.   Явления Облачность Т
(С)
Тd
(С)
f
(%)
Тe
(С)
Тes
(С)
Комфортность P
(гПа)
Po
(гПа)
Тmin
(С)
Tmax
(С)
R
(мм)
R24
(мм)
S
(см)
00 17.01 Ю 3 н/о н/о -4.8 -5.3 96 -10 -10 990.7 988.9
03 17.01 З 2 н/о н/о -4.9 -5.3 97 -9 -9 989.3 987.4
09 17.01 С 4 н/о н/о -5.9 -6.3 97 -13 -13 986.4 984.5
15 17.01 С 3 н/о н/о -6.6 -7.1 96 -12 -12 986.2 984.4
18 17.01 С 4 н/о н/о -5.5 -6.2 95 -12 -12 986.5 984.6
21 17.01 С 6 н/о н/о -4.8 -5.5 95 -13 -13 986.8 984.9
00 18.01 СВ 5 н/о н/о -5.8 -7.3 89 -13 -13 987.0 985.1
03 18.01 СВ 10
{13}
н/о н/о -4.5 -5.9 90 -14 -14 987.4 985.5
06 18.01 СВ 11
{15}
н/о н/о -5.4 -6.1 95 -16 -16 988.4 986.5
09 18.01 СВ 10
{15}
н/о н/о -6.3 -7.4 92 -16 -16 989.9 988.0
15 18.01 В 12
{18}
н/о н/о -8.4 -10.3 86 -20 -20 993.4 991.5
18 18.01 В 10
{15}
н/о н/о -9.2 -11.0 87 -20 -20 995.5 993.6
21 18.01 В 9
{14}
н/о н/о -9.8 -11.4 88 -20 -20 997.3 995.3
00 19.01 В 7 н/о н/о -11.6 -12.6 92 -21 -21 999.0 997.0
03 19.01 В 7 н/о н/о -12.1 -12.7 95 -22 -22 999.9 997.9
06 19.01 В 5 н/о н/о -12.9 -13.5 95 -21 -21 1001.0 999.0
09 19.01 В 6 н/о н/о -14.7 -15.7 92 -24 -24 1002.0 1000.0
12 19.01 В 6 н/о н/о -15.8 -16.9 91 -26 -26 1002.8 1000.8
15 19.01 В 7 н/о н/о -14.4 -15.3 93 -25 -25 1003.1 1001.1
18 19.01 В 6 н/о н/о -14.6 -15.6 92 -24 -24 1003.5 1001.5
21 19.01 В 7 н/о н/о -13.7 -14.6 93 -24 -24 1003.6 1001.6
00 20.01 В 6 н/о н/о -11.3 -13.3 85 -20 -20 1003.6 1001.7
03 20.01 В 6 н/о н/о -12.4 -14.4 85 -21 -21 1003.3 1001.3
06 20.01 ЮВ 5 н/о н/о -14.3 -15.3 92 -23 -23 1003.9 1001.9
09 20.01 В 4 н/о н/о -15.2 -16.3 91 -23 -23 1004.3 1002.3
15 20.01 В 5 н/о н/о -9.8 -10.4 95 -18 -18 1002.9 1001.0
18 20.01 В 3 н/о н/о -10.8 -11.4 95 -17 -17 1002.7 1000.8
21 20.01 В 1 н/о н/о -11.3 -11.8 96 -14 -14 1003.1 1001.1
00 21.01 СВ 1 н/о н/о -11.7 -12.5 94 -14 -14 1002.8 1000.9
03 21.01 штиль 0 н/о н/о -7.7 -8.1 97 -9 -9 1002.0 1000.0
06 21.01 С 3 н/о н/о -7.6 -8.3 95 -13 -13 1001.5 999.6
09 21.01 С 2 н/о н/о -5.9 -7.9 86 -10 -10 1001.8 999.9
12 21.01 СЗ 3 н/о н/о -6.4 -6.8 97 -12 -12 1001.2 999.3
15 21.01 СЗ 4 н/о н/о -6.1 -6.9 94 -13 -13 1000.7 998.8
18 21.01 СЗ 5 н/о н/о -9.4 -9.8 97 -17 -17 1000.6 998.7
21 21.01 СЗ 5 н/о н/о -8.6 -9.3 95 -16 -16 1000.4 998.5
00 22.01 З 4 н/о н/о -8.3 -8.8 96 -15 -15 999.9 998.0
03 22.01 З 4 н/о н/о -8.0 -8.5 96 -15 -15 999.3 997.4
06 22.01 З 4 н/о н/о -8.4 -8.9 96 -15 -15 999.3 997.3
09 22.01 Ю 3 н/о н/о -8.3 -8.7 97 -14 -14 999.8 997.9
12 22.01 В 3 н/о н/о -13.6 -14.5 93 -20 -20 1000.7 998.8
15 22.01 В 1 н/о н/о -10.1 -10.6 96 -12 -12 1001.6 999.6
18 22.01 В 2 н/о н/о -9.4 -9.9 96 -14 -14 1002.3 1000.4
21 22.01 СВ 1 н/о н/о -9.6 -10.1 96 -12 -12 1003.1 1001.2
00 23.01 штиль 0 н/о н/о -12.4 -13.2 94 -12 -12 1003.5 1001.5
03 23.01 ЮЗ 2 н/о н/о -9.1 -9.5 97 -14 -14 1003.5 1001.6

 

Местоположение метеостанции Моржовец Остров (Архангельская область, Россия): широта 66.72 долгота 42.48 высота над уровнем моря 16 м.

В архиве по умолчанию представлена погода на Моржовец Острове за последнюю неделю. Архивные данные за месяц целиком и за предыдущие месяцы, начиная с января 2011 года, Вы можете получить, выбрав интересующий диапазон дат из раскрывающегося списка и нажав кнопку "Ввод!".


*Определитесь, кто Вы:
робот инопланетянин человек

Внимание! Время в таблицах - всемирное. Для получения местного времени необходимо прибавить поправку, которая равна 3 ч.

Смотрите также архив погоды в соседних городах и на ближайших метеорологических станциях:

Погода в Абрамовском маяке (Архангельская область, Россия) (51 км)
Погода на Сосновец Острове (Мурманская область, Россия) (84 км)
Погода в Неси (Ненецкий АО, Россия) (98 км)
Погода в Мезене (Архангельская область, Россия) (122 км)
Погода в Каневке (Мурманская область, Россия) (131 км)
Погода в Пялице (Мурманская область, Россия) (144 км)
Погода в Шойне (Ненецкий АО, Россия) (148 км)
Погода в Кепино (Архангельская область, Россия) (152 км)
Погода в Зимнегорском Маяке (Архангельская область, Россия) (187 км)
Погода в Иоканьге (Мурманская область, Россия) (195 км)

Пояснения к столбцам:

Ветер - указаны скорость ветра в м/с - средняя за 10 мин, порывы в срок и между сроками (в фигурных скобках) и направление, откуда дует ветер: С - северный, СВ - северо-восточный, В - восточный, ЮВ - юго-восточный, Ю - южный, ЮЗ - юго-западный, З - западный, СЗ - северо-западный.
Видимость - горизонтальная дальность видимости в метрах или километрах. При видимости от 1 до 10 км при отсутствии осадков обычно наблюдается дымка, при ухудшении видимости до 1 км и менее - туман. В сухую погоду видимость может ухудшаться дымом, пылью или мглою.
Явления - указаны атмосферные явления, наблюдавшиеся в срок или в последний час перед сроком; фигурными скобками обозначены явления, наблюдавшиеся между сроками (за 1-3 часа до срока); квадратными скобками обозначены град или гололедные отложения с указанием их диаметра в мм.
Облачность - указаны через наклонную черту общая и нижняя облачность в баллах и высота нижней границы облаков в метрах; квадратными скобками обозначены формы облаков: Ci - перистые, Cs - перисто-слоистые, Cc - перисто-кучевые, Ac - высококучевые, As - высокослоистые, Sc - слоисто-кучевые, Ns - слоисто-дождевые, Cu - кучевые, Cb - кучево-дождевые. Подробнее классификацию облаков см. в Атласе облаков (PDF).
T - Температура воздуха - температура, измеренная на высоте 2 м над землей.
Td - Температура точки росы - температура, при понижении до которой содержащийся в воздухе водяной пар достигнет насыщения.
f - Относительная влажность воздуха - влажноcть воздуха, измеренная на высоте 2 м над землей.
Te - Эффективная температура - температура, которую ощущает одетый по сезону человек в тени. Характеристика душности погоды. При расчете учитывается влияние влажности воздуха и скорости ветра на теплоощущения человека.
Tes - Эффективная температура на солнце - температура, которую ощущает человек, с поправкой на солнечный нагрев. Характеристика знойности погоды. Зависит от высоты солнца над горизонтом, облачности и скорости ветра. Ночью, в пасмурную погоду, а также при ветре 12 м/с и более поправка равна нулю.
P - Атмосферное давление - приведенное к уровню моря атмосферное давление.
Po - Атмосферное давление - измеренное на уровне метеостанции атмосферное давление.
Tmin - Минимальная температура - минимум температуры воздуха на высоте 2 м над землей.
Tmax - Максимальная температура - максимум температуры воздуха на высоте 2 м над землей.
R - Количество осадков - Количество выпавших осадков за период времени, мм. При наведении курсора мыши на число - период времени, за который выпало указанное количество осадков.
R24 - Количество осадков - Количество выпавших осадков за 24 часа, мм.
S - Снежный покров - Высота снежного покрова, см. При наведении курсора мыши на число - состояние снежного покрова и степень покрытия местности в баллах.